WX2DX-2 Weather Reports


Display with metric or nautical units.
time (UTC)temp
F
wind
direction
speed
MPH
gust
MPH
rain 1hr
in
rain 24hr
in
rain mn
in
humidity
%
barometer
mb
20260905093035 68 49 2.0 4.0 0.00 0.01 0.00 91 1013.0
20260905091535 68 86 2.0 8.0 0.00 0.01 0.00 91 1013.0
20260905090032 69 5 0.0 4.0 0.00 0.01 0.00 92 1012.9
20260905084530 69 308 2.0 12.0 0.00 0.01 0.00 92 1012.7
20260905083030 69 360 0.0 3.0 0.00 0.01 0.00 93 1012.7
20260905081528 69 298 0.0 0.0 0.00 0.01 0.00 94 1013.0
20260905080028 69 282 0.0 0.0 0.00 0.01 0.00 94 1013.0
20260905074532 69 325 0.0 0.0 0.00 0.01 0.00 94 1013.0
20260905073033 69 325 0.0 0.0 0.00 0.01 0.00 94 1013.1
20260905071525 69 325 0.0 0.0 0.00 0.01 0.00 94 1013.2
20260905070020 69 325 0.0 0.0 0.00 0.01 0.00 94 1013.4
20260905064518 69 325 0.0 3.0 0.00 0.01 0.00 94 1013.5
20260905063016 70 315 0.0 5.0 0.00 0.01 0.00 94 1013.6
20260905061514 70 284 0.0 2.0 0.00 0.01 0.00 94 1013.8
20260905060015 70 309 0.0 3.0 0.00 0.01 0.00 95 1014.0
20260905054513 70 94 0.0 1.0 0.00 0.01 0.00 95 1014.0
20260905053008 70 94 0.0 0.0 0.00 0.01 0.00 95 1014.2
20260905051509 70 94 0.0 1.0 0.00 0.01 0.00 94 1014.2
20260905050006 70 126 0.0 1.0 0.00 0.01 0.00 94 1014.2
20260905044504 70 124 0.0 1.0 0.00 0.01 0.00 94 1014.5
20260905043002 70 126 0.0 2.0 0.01 0.01 0.00 94 1014.4
20260905041559 70 53 1.0 3.0 0.01 0.01 0.00 93 1014.2
20260905040058 71 360 0.0 1.0 0.01 0.01 0.00 92 1014.2
20260905034609 72 355 0.0 5.0 0.01 0.02 0.01 90 1014.1
20260905033105 72 333 1.0 4.0 0.00 0.01 0.00 88 1014.2
20260905031608 72 324 0.0 2.0 0.00 0.01 0.00 88 1014.0
20260905030054 73 298 0.0 8.0 0.00 0.01 0.00 87 1013.9
20260905024553 73 281 1.0 6.0 0.00 0.02 0.00 87 1013.9
20260905023124 73 280 2.0 4.0 0.00 0.02 0.00 88 1014.0
20260905021553 72 271 2.0 7.0 0.00 0.02 0.00 90 1014.0
20260905020052 70 276 2.0 7.0 0.00 0.02 0.00 92 1014.0
20260905014555 70 313 2.0 5.0 0.00 0.02 0.00 93 1014.0
20260905013051 70 248 1.0 4.0 0.00 0.02 0.00 92 1014.1
20260905011556 70 271 0.0 0.0 0.00 0.02 0.00 91 1013.9
20260905010050 71 271 0.0 0.0 0.00 0.02 0.00 90 1013.8
20260905004549 71 271 0.0 0.0 0.00 0.03 0.00 90 1013.9
20260905003049 71 271 0.0 2.0 0.00 0.03 0.00 88 1013.7
20260905001549 72 271 0.0 3.0 0.00 0.03 0.00 88 1013.5
20260905000100 73 313 0.0 1.0 0.00 0.03 0.00 85 1013.4
20260904234547 75 313 0.0 2.0 0.00 0.05 0.00 83 1013.5
20260904233049 76 345 0.0 2.0 0.00 0.05 0.00 83 1013.6
20260904231546 77 298 0.0 2.0 0.00 0.05 0.00 81 1013.6
20260904230049 78 281 1.0 7.0 0.00 0.05 0.00 77 1013.4
20260904224547 79 332 0.0 3.0 0.00 0.05 0.00 73 1013.4
20260904223046 79 5 1.0 5.0 0.00 0.05 0.00 72 1013.4
20260904221546 80 294 1.0 4.0 0.00 0.05 0.00 71 1013.4
20260904220107 81 311 0.0 3.0 0.00 0.05 0.00 71 1013.4
20260904214544 82 224 3.0 6.0 0.00 0.05 0.00 71 1013.2
20260904213043 81 267 1.0 3.0 0.00 0.05 0.00 69 1013.1
20260904211551 81 273 3.0 8.0 0.00 0.05 0.00 72 1013.5
20260904210045 79 311 1.0 7.0 0.00 0.05 0.00 73 1013.6
20260904204546 79 296 2.0 5.0 0.00 0.05 0.00 73 1013.5
20260904203044 80 265 2.0 9.0 0.00 0.05 0.00 72 1013.9
20260904201538 81 345 6.0 12.0 0.00 0.05 0.00 69 1013.9
20260904200039 81 355 2.0 9.0 0.00 0.05 0.00 71 1013.7
20260904194549 82 269 2.0 8.0 0.00 0.05 0.00 70 1014.0
20260904193040 83 304 4.0 14.0 0.00 0.05 0.00 69 1014.0
20260904191542 82 280 6.0 11.0 0.00 0.05 0.00 66 1014.1
20260904190035 83 324 3.0 11.0 0.00 0.05 0.00 67 1014.2
20260904184531 82 246 3.0 8.0 0.00 0.05 0.00 71 1014.5
20260904183032 80 294 4.0 13.0 0.00 0.05 0.00 73 1014.8
20260904181529 80 252 4.0 10.0 0.00 0.05 0.00 72 1015.0
20260904180027 81 266 2.0 11.0 0.00 0.05 0.00 72 1015.3
20260904174554 81 317 4.0 11.0 0.00 0.05 0.00 74 1015.5
20260904173025 80 293 5.0 14.0 0.00 0.05 0.00 72 1015.8
20260904171525 80 274 4.0 10.0 0.00 0.05 0.00 71 1015.8
20260904170025 80 280 2.0 9.0 0.00 0.05 0.00 72 1015.8
20260904164524 81 239 3.0 9.0 0.00 0.05 0.00 68 1015.8
20260904163021 80 290 3.0 8.0 0.00 0.05 0.00 74 1015.8
20260904161519 79 266 3.0 8.0 0.00 0.05 0.00 75 1015.7
20260904160036 78 291 2.0 7.0 0.00 0.05 0.00 76 1015.3
20260904154536 78 253 2.0 7.0 0.00 0.05 0.00 75 1015.2
20260904153042 78 337 1.0 6.0 0.00 0.05 0.00 76 1015.3
20260904151536 78 321 2.0 10.0 0.00 0.05 0.00 76 1015.3
20260904150031 77 264 5.0 11.0 0.00 0.05 0.00 76 1015.3
20260904144527 77 335 1.0 7.0 0.00 0.05 0.00 78 1015.3
20260904143026 77 268 5.0 10.0 0.00 0.05 0.00 76 1015.3
20260904141524 76 360 4.0 10.0 0.00 0.05 0.00 78 1015.4
20260904140022 76 259 2.0 8.0 0.00 0.05 0.00 81 1015.6
20260904134519 76 250 3.0 11.0 0.00 0.09 0.00 79 1015.3
20260904133016 75 302 2.0 5.0 0.00 0.09 0.00 80 1015.3
20260904131512 74 250 2.0 9.0 0.00 0.09 0.00 84 1015.5
20260904130010 73 263 5.0 9.0 0.00 0.09 0.00 82 1015.7
20260904124506 72 286 4.0 10.0 0.00 0.15 0.00 84 1015.7
20260904123005 72 279 1.0 5.0 0.00 0.15 0.00 86 1015.8
20260904121603 71 287 2.0 6.0 0.00 0.15 0.00 86 1015.8
20260904114553 70 312 2.0 8.0 0.00 0.15 0.00 88 1016.0
20260904113056 70 342 1.0 5.0 0.00 0.15 0.00 88 1015.8
20260904111546 70 310 1.0 11.0 0.00 0.15 0.00 89 1015.9
20260904110053 70 5 1.0 5.0 0.00 0.15 0.00 89 1015.8
20260904104541 70 330 1.0 11.0 0.00 0.15 0.00 89 1015.7
20260904103041 70 273 2.0 17.0 0.00 0.15 0.00 89 1015.7
20260904101542 70 274 5.0 10.0 0.00 0.15 0.00 89 1015.4
20260904100042 70 277 3.0 11.0 0.00 0.15 0.00 89 1015.2
20260904094537 69 291 2.0 9.0 0.00 0.19 0.00 90 1015.1